Wind_Speed
17 17 18 20 20 19 17 15 15 15 14 13 13 13 14 16 17 17 17 17 16 15 15 14 14 13 13 14 14 14 14 14 14 12 11 9 7 7 7 7 7 6
19 19 20 21 20 19 18 17 16 15 14 13 13 14 15 16 17 17 16 16 15 13 12 11 10 10 10 10 10 11 11 12 13 14 13 12 9 7 5 5 5 5
20 21 21 21 21 20 20 19 18 16 14 14 15 16 16 16 15 14 14 13 11 10 9 8 6 6 6 6 7 7 8 9 10 11 12 13 12 9 6 4 4 4
22 22 23 23 22 22 21 20 19 17 15 15 17 17 17 16 14 12 11 9 8 7 6 4 3 3 3 3 4 5 5 6 7 8 9 10 12 11 9 6 4 3
24 25 25 25 23 22 21 21 20 17 16 17 18 18 17 16 14 11 9 7 6 5 4 3 2 1 0 1 2 3 4 5 5 5 6 7 9 10 10 7 5 3
26 27 27 26 24 23 22 22 21 19 17 18 18 18 17 16 13 11 8 7 6 5 4 4 4 3 3 2 3 3 4 4 4 5 5 5 5 6 8 8 6 4
27 28 27 26 24 23 23 23 22 19 19 19 19 18 17 15 13 11 10 8 7 7 6 6 5 5 4 4 4 4 4 4 4 4 4 3 3 3 4 6 6 4
28 28 27 26 25 25 25 24 22 21 20 20 19 18 17 15 14 13 11 10 9 9 9 8 7 6 6 5 5 5 5 5 5 4 4 3 3 2 2 3 5 4
28 28 27 26 26 26 26 25 24 23 21 21 21 19 18 17 15 14 13 12 11 11 10 10 9 9 8 7 6 5 5 5 5 5 4 4 4 3 2 2 3 4
28 28 27 26 27 27 27 27 26 25 23 22 22 20 19 18 17 15 14 13 13 13 12 12 11 10 9 8 7 5 5 5 5 6 5 5 6 5 4 4 3 4
27 27 27 27 27 28 28 27 27 26 24 24 23 21 20 19 18 17 16 15 15 15 14 14 13 11 10 9 8 6 5 5 6 7 7 7 7 7 6 6 6 5
27 27 27 27 28 28 28 28 27 26 25 25 24 23 22 20 19 19 18 17 17 17 16 15 13 12 11 10 9 8 7 7 8 9 9 9 9 8 8 7 7 7
26 26 27 28 28 28 29 28 27 27 26 25 25 24 23 22 21 21 20 19 19 18 16 15 13 12 11 11 10 10 10 10 10 11 11 11 11 10 9 8 9 8
26 27 28 29 29 29 29 29 28 27 27 26 26 25 24 23 23 22 21 20 19 18 16 14 12 11 12 12 13 13 13 12 12 12 13 13 12 11 10 10 10 9
28 29 29 30 30 30 29 29 28 28 28 27 26 26 25 25 24 23 21 20 19 17 15 14 12 12 13 15 15 15 15 14 13 13 13 14 13 12 11 11 11 9
30 30 30 30 30 30 30 30 30 29 28 27 27 27 27 26 24 22 20 19 18 17 16 15 14 15 16 17 16 16 16 15 15 14 14 14 13 13 13 12 11 9
31 31 31 31 30 30 31 31 31 30 29 28 28 28 27 25 23 21 20 19 18 18 17 16 16 17 18 17 16 16 16 16 16 15 15 14 14 14 14 12 10 9
31 31 31 30 30 31 31 32 31 31 30 29 29 28 27 25 22 21 20 19 19 18 18 17 17 19 18 17 16 16 16 16 16 16 15 15 14 14 13 12 10 10
30 30 30 30 30 30 31 31 30 30 29 29 29 28 26 24 22 21 20 20 19 19 18 18 19 19 18 16 16 16 16 16 16 16 16 15 14 13 12 11 11 11
29 29 29 29 29 30 30 29 29 29 28 28 28 26 25 23 22 22 21 20 19 19 19 19 20 19 17 16 16 16 16 16 16 15 15 14 12 12 12 12 12 11
28 28 28 28 28 28 28 27 27 27 27 27 26 25 24 23 22 21 21 20 20 20 20 20 20 20 18 17 17 17 17 16 15 15 14 13 12 13 13 12 11 10
27 27 26 26 26 26 26 26 26 26 26 26 25 24 23 22 21 20 21 21 21 21 20 20 21 20 19 18 18 18 16 16 15 15 14 13 13 14 13 12 11 10
25 25 25 25 24 24 23 23 23 24 24 24 23 23 22 22 21 22 22 22 22 22 22 22 23 22 20 20 20 18 16 16 16 15 14 14 15 15 14 13 12 11
22 22 22 22 21 21 20 20 21 21 22 22 22 22 22 23 24 24 24 23 23 23 23 24 24 24 21 20 20 18 17 17 16 15 15 15 16 16 15 14 13 12
20 19 19 18 18 18 18 18 18 19 20 20 21 22 23 24 25 25 25 24 24 25 25 25 26 25 22 21 20 19 17 17 17 16 16 17 17 17 16 15 14 13
21 20 18 18 18 18 18 18 18 18 19 19 20 21 23 24 25 25 25 25 25 26 27 27 27 26 24 22 22 20 19 19 19 18 19 19 20 19 18 16 15 15
Wind_Direction
199 194 194 197 197 198 199 195 190 191 192 188 181 171 161 153 145 138 131 124 118 111 105 99 93 88 82 77 72 69 67 67 67 68 71 78 90 102 112 118 118 112
197 195 197 197 196 197 197 195 193 194 194 187 178 168 160 152 144 137 131 124 119 113 107 101 93 87 81 76 70 64 60 60 61 60 59 60 65 76 91 105 110 106
195 195 196 197 196 196 194 194 195 196 194 185 175 167 161 153 146 139 133 128 123 118 112 105 96 85 75 69 64 57 52 51 54 56 53 51 52 58 67 80 95 103
192 193 196 197 196 194 192 193 195 197 194 185 177 171 164 157 151 146 142 141 138 134 131 124 112 88 64 50 43 40 37 36 41 47 48 46 45 48 54 64 78 96
190 193 196 198 196 193 191 192 195 196 194 188 181 175 168 161 158 158 162 164 164 167 168 169 179 198 289 347 2 8 10 13 17 24 34 42 42 42 46 52 63 78
191 193 197 198 196 192 190 192 195 195 194 190 184 178 172 168 167 173 184 195 199 204 208 212 221 235 257 286 312 326 338 346 351 356 8 27 38 40 41 43 51 66
192 195 197 198 195 192 190 193 194 194 193 190 186 181 177 176 180 189 200 212 221 232 239 241 244 247 256 271 285 297 309 316 323 332 341 354 12 30 37 36 41 58
194 196 197 197 196 192 191 193 193 193 193 190 187 185 183 187 194 201 209 219 231 242 250 255 258 258 259 265 272 283 291 298 304 311 316 314 316 329 4 23 27 39
196 197 198 198 196 194 192 192 193 194 192 190 190 189 190 196 204 208 215 225 236 245 253 258 262 263 263 264 268 275 280 287 290 292 295 287 282 284 283 311 353 5
197 199 199 198 197 195 194 193 194 194 192 191 192 192 196 203 209 214 221 229 238 245 250 255 259 263 266 266 267 268 269 274 277 276 276 271 270 272 268 271 296 322
198 200 200 200 199 197 195 195 195 194 193 193 193 195 201 208 214 221 227 233 238 243 248 252 257 261 265 269 271 266 258 256 258 261 260 258 260 262 261 262 268 287
198 200 201 201 201 199 197 197 196 195 194 195 196 199 205 212 218 225 230 234 238 242 247 251 255 258 260 266 272 271 261 248 242 247 251 250 251 252 255 257 260 272
197 199 201 202 202 200 198 197 196 196 196 197 199 202 208 214 221 226 229 234 239 244 247 250 254 258 261 264 268 268 264 256 246 243 245 247 248 248 249 251 255 264
197 199 201 202 202 201 198 196 197 198 198 200 202 206 211 217 222 227 231 235 240 243 245 248 252 255 259 262 263 264 264 261 255 249 247 246 247 246 245 245 249 255
197 198 200 201 201 200 197 196 197 199 200 203 206 209 214 219 224 229 232 235 238 240 242 244 245 248 252 256 260 265 265 264 260 255 250 248 246 244 242 242 244 243
197 198 199 200 200 199 197 197 199 201 203 206 209 213 217 222 226 230 232 233 234 236 237 238 239 242 247 252 258 263 264 263 260 255 251 247 244 240 239 240 238 229
198 198 199 199 199 199 199 200 201 203 205 209 212 216 221 225 228 229 229 231 233 235 236 236 236 239 244 250 256 261 261 259 256 253 249 244 239 236 237 236 228 216
199 200 200 200 201 202 202 203 204 205 208 212 215 219 223 225 226 227 228 231 235 237 238 236 236 238 242 247 253 257 257 256 254 250 244 239 235 233 233 228 219 214
200 201 202 203 204 205 206 207 208 210 212 216 219 221 223 223 223 223 227 231 234 238 239 239 240 241 243 246 252 255 255 255 253 248 241 237 233 228 224 219 215 216
202 202 204 206 207 209 211 212 213 215 217 219 221 223 222 221 221 222 225 229 233 236 239 241 243 245 245 248 252 254 254 254 251 246 240 235 228 223 221 218 216 217
203 205 207 209 211 213 214 215 217 219 221 222 223 223 221 220 221 224 227 230 233 236 239 243 246 248 248 250 252 252 253 252 248 243 237 229 224 223 223 220 218 219
204 206 208 210 212 214 216 217 219 220 221 222 221 221 221 222 224 226 229 232 235 238 242 244 247 247 248 250 252 252 252 248 242 236 230 225 226 229 227 223 222 226
203 204 207 209 210 212 214 215 216 216 217 218 218 219 220 222 225 228 230 233 236 239 243 245 246 246 245 247 251 251 248 243 237 232 228 228 232 234 230 228 230 236
196 199 202 206 207 208 209 211 213 215 218 219 219 221 223 225 227 229 231 233 236 239 243 246 248 247 245 246 250 249 244 238 234 232 231 232 234 234 232 233 238 245
188 191 195 198 199 200 203 207 211 215 219 221 222 223 226 229 231 233 235 236 238 240 242 245 248 249 247 246 248 246 240 236 235 234 234 233 234 235 235 237 242 250
188 191 194 197 198 200 202 206 210 215 219 222 225 227 230 233 235 237 239 239 240 241 242 244 246 248 247 245 245 243 238 236 238 238 237 235 236 238 238 240 245 252
Height
5926 5928 5929 5930 5931 5933 5935 5936 5938 5938 5940 5941 5942 5943 5943 5943 5943 5944 5944 5945 5946 5947 5948 5949 5950 5950 5951 5951 5952 5952 5953 5953 5953 5954 5954 5955 5955 5955 5956 5956 5956 5957
5924 5926 5928 5929 5930 5932 5934 5936 5937 5938 5939 5940 5942 5943 5944 5944 5944 5944 5945 5945 5946 5947 5948 5949 5950 5950 5951 5951 5952 5953 5953 5953 5953 5953 5954 5954 5955 5955 5955 5955 5956 5956
5923 5925 5926 5928 5929 5931 5933 5935 5936 5938 5939 5940 5942 5943 5944 5945 5945 5946 5946 5946 5946 5947 5947 5948 5949 5950 5951 5951 5952 5952 5953 5953 5953 5954 5954 5954 5954 5954 5955 5955 5955 5955
5921 5923 5925 5926 5928 5929 5931 5934 5935 5937 5939 5940 5941 5942 5943 5945 5946 5946 5947 5947 5947 5947 5947 5948 5949 5949 5950 5951 5951 5952 5953 5953 5953 5954 5954 5954 5954 5954 5954 5954 5955 5955
5919 5921 5923 5924 5926 5928 5931 5933 5935 5936 5938 5939 5941 5942 5943 5944 5945 5946 5947 5948 5948 5947 5947 5948 5948 5949 5949 5950 5951 5951 5952 5953 5953 5953 5953 5954 5954 5954 5954 5954 5954 5955
5917 5919 5921 5923 5925 5927 5930 5932 5933 5935 5937 5939 5940 5941 5942 5943 5944 5945 5947 5948 5948 5948 5948 5948 5948 5948 5949 5949 5950 5950 5951 5952 5952 5953 5953 5953 5954 5954 5954 5954 5954 5954
5915 5917 5919 5921 5923 5926 5928 5930 5932 5934 5936 5938 5940 5941 5942 5943 5943 5945 5946 5947 5948 5948 5948 5948 5948 5948 5948 5949 5949 5950 5950 5951 5951 5952 5952 5953 5953 5953 5953 5953 5953 5954
5913 5915 5917 5919 5922 5924 5926 5929 5931 5933 5935 5937 5939 5940 5941 5942 5943 5944 5945 5946 5947 5947 5948 5948 5948 5948 5948 5948 5948 5949 5949 5950 5950 5951 5951 5952 5952 5952 5952 5953 5953 5953
5911 5913 5915 5918 5920 5922 5925 5927 5929 5931 5933 5936 5937 5939 5940 5941 5942 5943 5943 5945 5946 5946 5947 5947 5947 5947 5947 5948 5948 5948 5949 5949 5949 5950 5950 5950 5951 5951 5951 5952 5952 5952
5910 5912 5914 5916 5918 5921 5923 5925 5927 5929 5932 5934 5936 5937 5939 5940 5941 5942 5942 5943 5944 5945 5945 5946 5946 5946 5946 5947 5947 5948 5948 5948 5949 5949 5949 5949 5949 5950 5950 5951 5951 5951
5908 5910 5913 5915 5917 5919 5921 5923 5925 5928 5930 5932 5934 5936 5937 5938 5939 5940 5941 5942 5943 5943 5944 5944 5945 5945 5946 5946 5947 5947 5948 5948 5948 5948 5948 5948 5948 5948 5949 5949 5949 5950
5907 5909 5911 5913 5915 5917 5919 5921 5923 5926 5928 5930 5932 5934 5935 5937 5938 5939 5939 5940 5940 5941 5942 5942 5943 5944 5945 5945 5946 5946 5947 5947 5947 5947 5946 5946 5947 5947 5947 5948 5948 5948
5905 5907 5909 5911 5913 5915 5917 5919 5922 5924 5926 5928 5930 5932 5933 5935 5936 5937 5938 5938 5939 5939 5940 5941 5942 5943 5943 5944 5945 5945 5945 5945 5946 5945 5945 5945 5945 5946 5946 5946 5946 5947
5903 5905 5907 5909 5910 5913 5915 5918 5920 5922 5924 5926 5928 5930 5932 5933 5934 5935 5936 5936 5937 5938 5938 5939 5940 5941 5942 5942 5943 5943 5944 5944 5944 5944 5944 5944 5944 5944 5945 5945 5945 5945
5901 5902 5904 5906 5908 5911 5913 5916 5918 5920 5922 5924 5926 5928 5929 5930 5932 5933 5934 5935 5936 5936 5937 5938 5939 5940 5940 5940 5941 5941 5942 5942 5942 5942 5942 5942 5942 5943 5943 5943 5944 5944
5898 5900 5902 5904 5907 5909 5912 5914 5916 5918 5920 5922 5924 5925 5927 5928 5930 5931 5932 5933 5934 5935 5936 5937 5937 5938 5938 5938 5939 5939 5940 5940 5940 5940 5940 5940 5941 5941 5941 5942 5942 5942
5897 5899 5901 5903 5905 5907 5909 5911 5913 5916 5918 5920 5921 5923 5924 5926 5928 5929 5930 5931 5932 5933 5934 5935 5936 5936 5936 5937 5937 5938 5938 5938 5938 5938 5938 5938 5939 5939 5940 5940 5940 5941
5895 5897 5899 5901 5903 5905 5907 5909 5911 5914 5916 5918 5919 5921 5922 5924 5926 5927 5928 5929 5930 5931 5932 5933 5933 5934 5934 5935 5936 5936 5936 5936 5936 5936 5936 5937 5937 5937 5938 5938 5939 5939
5894 5896 5898 5900 5902 5903 5905 5907 5910 5912 5914 5916 5917 5919 5920 5922 5924 5925 5926 5927 5928 5929 5930 5931 5931 5931 5933 5934 5934 5934 5934 5934 5934 5934 5935 5935 5936 5936 5936 5937 5937 5937
5892 5895 5897 5898 5900 5902 5904 5906 5909 5910 5912 5913 5915 5917 5919 5920 5922 5923 5924 5925 5926 5927 5928 5928 5929 5929 5931 5931 5932 5932 5932 5932 5933 5933 5933 5934 5934 5935 5935 5935 5936 5936
5891 5893 5895 5896 5898 5900 5902 5905 5907 5908 5910 5911 5913 5915 5917 5918 5919 5921 5922 5923 5924 5925 5926 5926 5927 5927 5928 5929 5929 5930 5930 5931 5931 5932 5932 5933 5933 5933 5933 5934 5934 5934
5889 5891 5893 5894 5896 5899 5901 5903 5905 5906 5908 5909 5911 5913 5915 5916 5918 5919 5920 5920 5921 5922 5924 5924 5924 5925 5926 5927 5927 5928 5929 5930 5930 5930 5931 5932 5932 5932 5932 5932 5932 5933
5887 5889 5891 5892 5895 5897 5899 5901 5903 5904 5906 5907 5909 5911 5913 5914 5916 5916 5917 5918 5919 5920 5921 5921 5922 5923 5924 5925 5925 5926 5927 5928 5928 5929 5930 5930 5930 5930 5930 5930 5931 5931
5885 5887 5889 5891 5893 5895 5897 5899 5900 5902 5904 5905 5907 5909 5910 5912 5912 5913 5914 5916 5917 5918 5918 5919 5919 5920 5922 5922 5923 5924 5925 5925 5926 5927 5928 5928 5928 5928 5928 5929 5929 5929
5883 5886 5888 5890 5892 5894 5895 5897 5899 5900 5902 5903 5905 5907 5908 5909 5910 5911 5912 5913 5914 5915 5916 5916 5917 5918 5919 5920 5921 5922 5923 5923 5924 5925 5926 5926 5926 5926 5926 5927 5927 5928
5882 5884 5886 5888 5890 5892 5894 5895 5897 5898 5900 5902 5903 5904 5905 5906 5907 5908 5909 5910 5911 5912 5913 5914 5915 5915 5917 5918 5919 5920 5920 5921 5922 5923 5923 5923 5924 5924 5925 5925 5926 5926